WMT886 EPGD-LROP

Flight info

Callsign WMT886
Flight time N/A
Altitude 37000
Route IRLUN N133 ADOXO DCT POLON DCT NUBLI DCT OVBOR N133 KOTEK DCT ORTEB DCT LENOV DCT DUFES DCT KENIN DCT DENAK
Aircraft A321/M-SDE1E2E3FGIJ1J4RWXY/LB1

Departure

Time 2026-05-01 14:38
Airport Gdańsk Lech Wałęsa Airport (EPGD)

Arrival

Time N/A
Airport Bucharest Henri Coandă International Airport (LROP)
Time Latitude Longitude Altitude Speed Heading
2026-05-01 13:59 54.38114 18.46618 460 ft 0 kts 23°
2026-05-01 14:30 54.38112 18.46617 460 ft 2 kts 23°
2026-05-01 14:30 54.38092 18.46595 458 ft 4 kts 55°
2026-05-01 14:30 54.38084 18.46555 456 ft 4 kts 99°
2026-05-01 14:31 54.38087 18.46534 457 ft 0 kts 113°
2026-05-01 14:35 54.38077 18.46572 456 ft 8 kts 113°
2026-05-01 14:35 54.38040 18.46624 460 ft 8 kts 197°
2026-05-01 14:35 54.37985 18.46580 459 ft 9 kts 205°
2026-05-01 14:35 54.37969 18.46484 459 ft 10 kts 284°
2026-05-01 14:36 54.37997 18.46370 459 ft 11 kts 294°
2026-05-01 14:36 54.38030 18.46241 459 ft 12 kts 294°
2026-05-01 14:36 54.38067 18.46096 457 ft 14 kts 292°
2026-05-01 14:36 54.38106 18.45935 458 ft 16 kts 292°
2026-05-01 14:37 54.38148 18.45755 455 ft 15 kts 283°
2026-05-01 14:37 54.38091 18.45617 455 ft 15 kts 202°
2026-05-01 14:37 54.38029 18.45596 455 ft 9 kts 166°
2026-05-01 14:37 54.37993 18.45670 456 ft 7 kts 111°
2026-05-01 14:38 54.37958 18.45818 454 ft 36 kts 113°
2026-05-01 14:38 54.37756 18.46633 457 ft 109 kts 113°
2026-05-01 14:38 54.37381 18.48144 519 ft 159 kts 112°
2026-05-01 14:38 54.36947 18.49913 1146 ft 163 kts 111°
2026-05-01 14:39 54.36500 18.51735 1764 ft 171 kts 112°
2026-05-01 14:39 54.36009 18.53746 2077 ft 193 kts 112°
2026-05-01 14:39 54.35456 18.55976 2345 ft 214 kts 113°
2026-05-01 14:39 54.34835 18.58454 2608 ft 237 kts 113°
2026-05-01 14:40 54.34170 18.61106 3306 ft 244 kts 113°
2026-05-01 14:40 54.33496 18.63778 4117 ft 245 kts 115°
2026-05-01 14:40 54.32415 18.65999 4891 ft 246 kts 150°
2026-05-01 14:40 54.30751 18.66758 5348 ft 260 kts 186°
2026-05-01 14:41 54.28946 18.66009 5783 ft 274 kts 204°
2026-05-01 14:41 54.27783 18.65113 6228 ft 279 kts 208°
2026-05-01 14:41 54.26036 18.63556 6899 ft 287 kts 208°
2026-05-01 14:41 54.24160 18.62289 7567 ft 294 kts 194°
2026-05-01 14:42 54.22109 18.61863 8272 ft 299 kts 183°
2026-05-01 14:42 54.20010 18.61743 8999 ft 304 kts 180°
2026-05-01 14:42 54.17872 18.61727 9715 ft 310 kts 179°
2026-05-01 14:42 54.15705 18.61751 10400 ft 315 kts 179°
2026-05-01 14:43 54.13444 18.61784 10675 ft 336 kts 179°
2026-05-01 14:43 54.11031 18.61806 10831 ft 359 kts 179°
2026-05-01 14:43 54.08483 18.61808 11241 ft 371 kts 179°
2026-05-01 14:43 54.05886 18.61791 11851 ft 376 kts 179°
2026-05-01 14:44 54.03249 18.61761 12497 ft 381 kts 179°
2026-05-01 14:44 53.97884 18.61693 13753 ft 390 kts 179°
2026-05-01 14:44 53.95154 18.61658 14349 ft 395 kts 179°
2026-05-01 14:45 53.92386 18.61630 14929 ft 399 kts 179°
2026-05-01 14:45 53.86792 18.61579 16151 ft 406 kts 179°
2026-05-01 14:45 53.83954 18.61553 16770 ft 409 kts 178°
2026-05-01 14:46 53.81103 18.61534 17379 ft 412 kts 178°
2026-05-01 14:46 53.75348 18.62031 18552 ft 415 kts 165°
2026-05-01 14:46 53.72575 18.63334 19071 ft 414 kts 155°
2026-05-01 14:47 53.69926 18.65242 19618 ft 414 kts 152°
2026-05-01 14:47 53.67273 18.67191 20158 ft 417 kts 152°
2026-05-01 14:47 53.64613 18.69127 20708 ft 420 kts 152°
2026-05-01 14:48 53.59211 18.73025 21805 ft 425 kts 152°
2026-05-01 14:48 53.56485 18.74987 22328 ft 428 kts 152°
2026-05-01 14:48 53.50930 18.78779 23354 ft 436 kts 158°
2026-05-01 14:49 53.45112 18.81861 24293 ft 440 kts 158°
2026-05-01 14:49 53.39241 18.84943 25135 ft 445 kts 158°
2026-05-01 14:50 53.34305 18.87533 25766 ft 449 kts 158°
2026-05-01 14:50 53.27328 18.91196 26668 ft 455 kts 158°
2026-05-01 14:51 53.24304 18.92784 27064 ft 457 kts 159°
2026-05-01 14:51 53.18213 18.95966 27854 ft 460 kts 159°
2026-05-01 14:52 53.12083 18.99149 28612 ft 464 kts 159°
2026-05-01 14:52 53.08990 19.00749 28977 ft 466 kts 159°
2026-05-01 14:52 53.02763 19.03970 29672 ft 470 kts 159°
2026-05-01 14:53 52.99628 19.05591 30016 ft 473 kts 159°
2026-05-01 14:53 52.96481 19.07216 30358 ft 475 kts 159°
2026-05-01 14:53 52.93316 19.08845 30674 ft 477 kts 159°
2026-05-01 14:53 52.90138 19.10477 30941 ft 480 kts 159°
2026-05-01 14:54 52.86944 19.12117 31301 ft 480 kts 158°
2026-05-01 14:54 52.83759 19.13754 31682 ft 480 kts 159°
2026-05-01 14:54 52.80566 19.15387 32063 ft 479 kts 159°
2026-05-01 14:54 52.77381 19.17011 32436 ft 479 kts 159°
2026-05-01 14:55 52.74198 19.18632 32814 ft 479 kts 159°
2026-05-01 14:55 52.71014 19.20252 33179 ft 479 kts 159°
2026-05-01 14:55 52.67830 19.21872 33546 ft 479 kts 159°
2026-05-01 14:55 52.64651 19.23487 33904 ft 478 kts 158°
2026-05-01 14:56 52.61465 19.25104 34258 ft 478 kts 158°
2026-05-01 14:56 52.58286 19.26716 34562 ft 478 kts 158°
2026-05-01 14:56 52.55105 19.28330 34864 ft 478 kts 159°
2026-05-01 14:56 52.51929 19.29942 35180 ft 478 kts 158°
2026-05-01 14:57 52.48754 19.31547 35448 ft 478 kts 159°
2026-05-01 14:57 52.42389 19.34751 36034 ft 478 kts 159°
2026-05-01 14:57 52.39205 19.36346 36329 ft 478 kts 159°
2026-05-01 14:58 52.36027 19.37937 36606 ft 478 kts 159°
2026-05-01 14:58 52.32845 19.39527 36865 ft 478 kts 159°
2026-05-01 14:58 52.29668 19.41112 37135 ft 478 kts 159°
2026-05-01 14:58 52.26484 19.42697 37282 ft 478 kts 159°
2026-05-01 14:59 52.20126 19.45852 37301 ft 477 kts 159°
2026-05-01 14:59 52.13811 19.48978 37298 ft 477 kts 159°
2026-05-01 15:00 52.04281 19.53688 37301 ft 477 kts 159°
2026-05-01 15:01 51.97926 19.56820 37303 ft 477 kts 159°
2026-05-01 15:01 51.91571 19.59952 37308 ft 478 kts 159°
2026-05-01 15:02 51.85209 19.63080 37312 ft 478 kts 159°
2026-05-01 15:02 51.78849 19.66191 37321 ft 478 kts 159°
2026-05-01 15:03 51.72514 19.69471 37318 ft 477 kts 158°
2026-05-01 15:03 51.66216 19.72863 37344 ft 478 kts 157°
2026-05-01 15:04 51.59907 19.76240 37327 ft 478 kts 158°
2026-05-01 15:04 51.53578 19.79555 37323 ft 478 kts 158°
2026-05-01 15:05 51.47243 19.82847 37316 ft 479 kts 158°
2026-05-01 15:05 51.40911 19.86147 37317 ft 479 kts 158°
2026-05-01 15:06 51.34572 19.89446 37318 ft 479 kts 158°
2026-05-01 15:06 51.28276 19.92709 37317 ft 479 kts 158°
2026-05-01 15:07 51.21937 19.95985 37335 ft 479 kts 158°
2026-05-01 15:07 51.15598 19.99253 37311 ft 479 kts 158°
2026-05-01 15:08 51.09253 20.02515 37320 ft 479 kts 158°
2026-05-01 15:08 51.02910 20.05760 37314 ft 479 kts 158°
2026-05-01 15:09 50.96550 20.08998 37317 ft 479 kts 158°
2026-05-01 15:09 50.90197 20.12222 37323 ft 479 kts 158°
2026-05-01 15:10 50.83849 20.15445 37326 ft 479 kts 158°
2026-05-01 15:10 50.74358 20.20262 37319 ft 480 kts 158°
2026-05-01 15:11 50.64769 20.25087 37315 ft 480 kts 157°
2026-05-01 15:12 50.58483 20.28566 37305 ft 478 kts 154°
2026-05-01 15:12 50.49253 20.34209 37303 ft 477 kts 154°
2026-05-01 15:14 50.33700 20.43355 37290 ft 478 kts 154°
2026-05-01 15:14 50.24348 20.48780 37291 ft 478 kts 154°
2026-05-01 15:15 50.11885 20.56015 37323 ft 478 kts 154°
2026-05-01 15:16 49.99424 20.63259 37302 ft 478 kts 154°
2026-05-01 15:18 49.83860 20.72314 37301 ft 478 kts 154°
2026-05-01 15:19 49.71392 20.79497 37325 ft 479 kts 154°
2026-05-01 15:19 49.62020 20.84876 37318 ft 479 kts 153°
2026-05-01 15:20 49.52702 20.90216 37304 ft 479 kts 153°
2026-05-01 15:21 49.46449 20.93769 37307 ft 479 kts 154°
2026-05-01 15:21 49.40195 20.97315 37347 ft 479 kts 153°
2026-05-01 15:22 49.31007 21.03171 37310 ft 472 kts 145°
2026-05-01 15:22 49.25218 21.07919 37311 ft 473 kts 145°
2026-05-01 15:23 49.19409 21.12659 37310 ft 473 kts 145°
2026-05-01 15:23 49.13601 21.17381 37307 ft 473 kts 145°
2026-05-01 15:24 49.07784 21.22096 37311 ft 473 kts 145°
2026-05-01 15:24 49.01968 21.26787 37299 ft 473 kts 145°
2026-05-01 15:25 48.96154 21.31485 37303 ft 472 kts 142°
2026-05-01 15:25 48.90777 21.36934 37304 ft 467 kts 138°
2026-05-01 15:26 48.85408 21.42500 37304 ft 468 kts 139°
2026-05-01 15:26 48.80024 21.48045 37327 ft 467 kts 139°
2026-05-01 15:27 48.74647 21.53567 37319 ft 467 kts 139°
2026-05-01 15:28 48.66570 21.61840 37301 ft 467 kts 139°
2026-05-01 15:28 48.61184 21.67343 37309 ft 467 kts 139°
2026-05-01 15:29 48.53098 21.75580 37301 ft 467 kts 139°
2026-05-01 15:30 48.43229 21.85600 37303 ft 467 kts 139°
2026-05-01 15:31 48.32287 21.98423 37330 ft 456 kts 128°
2026-05-01 15:31 48.27750 22.05080 37312 ft 456 kts 128°
2026-05-01 15:32 48.19375 22.17258 37306 ft 456 kts 128°
2026-05-01 15:34 48.05726 22.37034 37293 ft 455 kts 128°